Change the Weather History Date:

Friday, April 19, 2013

  Actual Average Record
Temperature  
Mean Temperature 64 °F 77 °F  
Max Temperature 73 °F 88 °F 98 °F (2011)
Min Temperature 54 °F 67 °F 53 °F (2008)
Degree Days  
Heating Degree Days 1 0  
Month to date heating degree days 1 3  
Since 1 July heating degree days 313 574  
Cooling Degree Days 0 12  
Month to date cooling degree days 228 209  
Year to date cooling degree days 696 586  
Growing Degree Days 16 (Base 50)    
Moisture  
Dew Point 32 °F    
Average Humidity 36    
Maximum Humidity 55    
Minimum Humidity 16    
Precipitation  
Precipitation 0.00 in 0.06 in 1.87 in (1974)
Month to date precipitation T 0.71  
Year to date precipitation 0.99 3.90  
Sea Level Pressure  
Sea Level Pressure 30.20 in    
Wind  
Wind Speed 13 mph (NE)    
Max Wind Speed 25 mph    
Max Gust Speed 35 mph    
Visibility 10 miles    
Events      
T = Trace of Precipitation, MM = Missing Value Source: NWS Daily Summary

Daily Weather History Graph

Daily Weather History Graph

Search for Another Location

Airport or City:

Trip Planner

Search our weather history database for the weather conditions in past years. The results will help you decide how hot, cold, wet, or windy it might be!

Date:

Astronomy

Apr. 19, 2013 Rise Set
Actual Time 7:05 AM CDT 7:58 PM CDT
Civil Twilight 6:41 AM CDT 8:22 PM CDT
Nautical Twilight 6:13 AM CDT 8:50 PM CDT
Astronomical Twilight 5:45 AM CDT 9:19 PM CDT
Moon 2:18 PM CDT (4/19) 2:45 AM CDT (4/19)
Length of Visible Light 13h 40m
Length of Day
12h 53m
First Quarter, 62% of the Moon is Illuminated
Apr 19
First Quarter
Apr 25
Full
May 2
Last Quarter
May 9
New
May 17
First Quarter

Hourly Weather History & Observations

Time (CDT) Temp. Dew Point Humidity Pressure Visibility Wind Dir Wind Speed Gust Speed Precip Events Conditions
12:53 AM 64.9 °F 45.0 °F 48% 30.04 in 10.0 mi NNE 20.7 mph 31.1 mph N/A   Clear
1:53 AM 63.0 °F 43.0 °F 48% 30.05 in 10.0 mi NNE 17.3 mph 29.9 mph N/A   Partly Cloudy
2:53 AM 63.0 °F 41.0 °F 45% 30.08 in 10.0 mi NNE 23.0 mph 32.2 mph N/A   Overcast
3:53 AM 62.1 °F 39.9 °F 44% 30.09 in 10.0 mi NNE 21.9 mph 29.9 mph N/A   Mostly Cloudy
4:53 AM 62.1 °F 39.0 °F 43% 30.12 in 10.0 mi North 18.4 mph 27.6 mph N/A   Overcast
5:53 AM 61.0 °F 37.9 °F 42% 30.14 in 10.0 mi North 20.7 mph 26.5 mph N/A   Overcast
6:53 AM 61.0 °F 35.1 °F 38% 30.18 in 10.0 mi North 24.2 mph 32.2 mph N/A   Overcast
7:53 AM 60.1 °F 32.0 °F 35% 30.24 in 10.0 mi North 21.9 mph 31.1 mph N/A   Overcast
8:53 AM 60.1 °F 30.0 °F 32% 30.27 in 10.0 mi North 18.4 mph 28.8 mph N/A   Overcast
9:53 AM 60.1 °F 30.0 °F 32% 30.30 in 10.0 mi North 13.8 mph - N/A   Overcast
10:53 AM 62.1 °F 28.0 °F 28% 30.32 in 10.0 mi North 16.1 mph - N/A   Overcast
11:53 AM 66.0 °F 26.1 °F 22% 30.32 in 10.0 mi NNE 15.0 mph 21.9 mph N/A   Mostly Cloudy
12:53 PM 68.0 °F 26.1 °F 21% 30.31 in 10.0 mi NNE 13.8 mph 24.2 mph N/A   Overcast
1:53 PM 68.0 °F 21.9 °F 17% 30.28 in 10.0 mi NNE 16.1 mph 24.2 mph N/A   Overcast
2:53 PM 70.0 °F 21.0 °F 16% 30.26 in 10.0 mi North 10.4 mph 18.4 mph N/A   Mostly Cloudy
3:53 PM 70.0 °F 23.0 °F 17% 30.23 in 10.0 mi ENE 9.2 mph - N/A   Scattered Clouds
4:53 PM 72.0 °F 23.0 °F 16% 30.20 in 10.0 mi NNE 9.2 mph - N/A   Clear
5:53 PM 70.0 °F 23.0 °F 17% 30.19 in 10.0 mi Calm Calm - N/A   Clear
6:53 PM 70.0 °F 23.0 °F 17% 30.18 in 10.0 mi East 4.6 mph - N/A   Clear
7:53 PM 66.9 °F 26.1 °F 21% 30.19 in 10.0 mi SE 8.1 mph - N/A   Clear
8:53 PM 63.0 °F 34.0 °F 34% 30.20 in 10.0 mi SSE 6.9 mph - N/A   Clear
9:53 PM 61.0 °F 35.1 °F 38% 30.22 in 10.0 mi SE 8.1 mph - N/A   Clear
10:53 PM 59.0 °F 37.0 °F 44% 30.23 in 10.0 mi SE 6.9 mph - N/A   Clear
11:53 PM 55.9 °F 39.0 °F 53% 30.23 in 10.0 mi SE 5.8 mph - N/A   Clear